Weather in Mazeikiai

Lithuania     56°18′12″N   22°20′16″E
temp.,
°C
wind,
m/s
gust,
m/s
humid.,
%
clouds,
%
prec.,
mm/h
press.,
hPa
HPBL,
m
28 july, wed
wed2800:00+17sw369656 0.0 1010123
03:00+16sw38979 0.0 1010183
06:00+16sw369813 0.0 1010153
09:00+21wsw4681100 0.0 1010489
12:00+26wsw464811 0.0 10101696
15:00+27wsw6643100 0.0 10091930
18:00+27wsw56425 0.0 10091983
21:00+21wnw236282 0.0 100834
29 july, thu
thu2900:00+19wsw347255 0.0 100894
03:00+17sw379381 0.0 1008186
06:00+16wsw399822 0.0 1008251
09:00+21wsw58695 0.0 1007818
12:00+25wsw684766 0.0 10061974
15:00+24wsw81051100 0.0 10061819
18:00+23wsw7104629 0.0 10061801
21:00+18wsw6107047 0.0 1007975
30 july, fri
fri3000:00+15sw5118446 0.1 1007476
03:00+13ssw4118621 0.1 1006301
06:00+14ssw513815 0.0 1005484
09:00+19sw812615 0.1 10041400
12:00+19wsw101365100 1.0 10041605
15:00+22wsw10134420 1.4 10032214
18:00+20wsw101555100 0.1 10021784
21:00+18wsw9166880 0.1 10011325
31 july, sat
sat3100:00+18wsw9167647 0.0 10011131
03:00+17wsw7138813 0.1 1002719
06:00+16wsw5129482 0.1 1003482
09:00+20wsw697037 0.1 10031048
12:00+24sw684626 0.0 10031689
15:00+26ssw6937100 0.0 10022558
18:00+19wsw59797 1.5 1002557
21:00+17wsw410780 1.6 1002688
1 august, sun
sun100:00+16sw6137929 0.0 1002833
03:00+17sw6128459 0.4 1002767
06:00+16wsw71391100 1.4 1002707
09:00+17wsw6107986 1.8 10031020
12:00+21wsw81154100 0.1 10051692
15:00+20wsw71052100 0.2 10061683
18:00+21w695174 0.0 10061694
21:00+17w367059 0.0 1006192